Notices

What's New in latest Release from April 7th, 2021:

- Updated Glossary, including Speed of Maximum Gust, and Total Hourly Precipitation

- Updated national and regional climate services offices contacts and prices information

- Addition of station inventory lists for 1981-2010, 1971-2000, and 1961-1990 Normals.

If you haven't already, please take our survey and provide feedback about our website: https://eccc.sondage-survey.ca/f/LanguageSelection.aspx?s=442ca660-fcf1-47c0-95a9-59707d6fd709

Hourly Data Report for August 06, 2020

OTTAWA INTL A
ONTARIO
Current Station Operator: NAVCAN

45°19'00.000" N
75°40'00.000" W
114.90 m
6106001
71628
YOW

Download Data

Hourly Data (August 2020)
Hourly Data Report for August 6, 2020
TIME
LST
Temp Definition
°C
Dew Point Definition
°C
Rel Hum Definition
%
Precip. Amount Definition
mm

Wind Dir Definition
10's deg

Wind Spd Definition
km/h
Visibility Definition
km
Stn Press Definition
kPa
Hmdx Definition


Wind Chill Definition


Weather Definition


00:00 14.0 10.9 82   24 12 24.1 100.31     LegendNANA
01:00 13.5 10.8 83   24 10 24.1 100.33     Clear
02:00 13.2 11.0 87   28 8 24.1 100.36     LegendNANA
03:00 13.4 11.1 86   25 12 24.1 100.38     LegendNANA
04:00 13.0 11.1 88   25 13 24.1 100.40     Mainly Clear
05:00 11.9 10.3 90   13 4 24.1 100.50     LegendNANA
06:00 12.9 11.5 91   20 9 24.1 100.57     LegendNANA
07:00 15.6 12.3 81   25 11 24.1 100.63     Mainly Clear
08:00 17.4 12.8 74   24 12 24.1 100.66     LegendNANA
09:00 19.6 13.7 68   30 16 24.1 100.66     LegendNANA
10:00 20.5 13.2 63   26 14 24.1 100.67     Mainly Clear
11:00 21.1 12.1 56   23 10 24.1 100.66     LegendNANA
12:00 22.7 12.3 51   22 8 24.1 100.64 25   LegendNANA
13:00 23.3 11.3 46   24 10 24.1 100.62 25   Mainly Clear
14:00 24.3 11.3 43   24 9 24.1 100.61 26   LegendNANA
15:00 24.9 10.8 41   19 8 24.1 100.57 27   LegendNANA
16:00 25.2 11.9 43   24 9 24.1 100.55 27   Mainly Clear
17:00 24.9 11.6 43   25 8 24.1 100.53 27   LegendNANA
18:00 24.0 13.3 51   15 7 24.1 100.52 27   LegendNANA
19:00 20.9 14.6 67   15 8 24.1 100.52 25   Clear
20:00 18.6 13.1 70   15 10 24.1 100.58     LegendNANA
21:00 18.1 13.0 72   16 8 24.1 100.64     LegendNANA
22:00 18.2 13.2 72   19 7 24.1 100.66     Clear
23:00 16.5 13.4 82   18 9 24.1 100.69     LegendNANA

Notes on Data Quality.

Legend

  • E = Estimated
  • M = Missing
  • NA = Not Available*
  • [empty] = Indicates an unobserved value
Date modified: